STARLINK K (44244 NORAD) Tracking and Keplerian Element Data

This shows tracking and keplerian element data for the satellite.

Feedback or suggestion? Click here.




ElementValue
Catalog44244
NameSTARLINK K
Epoch Orbit386
Epoch Day173.93268403
Epoch Year2019
RAAN38.0714
Inclination53.003
Eccentricity0.0002188
Argument of Perigee103.3185
Mean Anonmoly256.8047
Mean Motion15.05477093
Decay Rate1.561E-05
L11 44244U 19029K 19173.93268403 .00001561 00000-0 12662-3 0 9998
L22 44244 53.0030 38.0714 0002188 103.3185 256.8047 15.05477093 3864

Live tracking and technical data element details for STARLINK K (NORAD 44244). STARLINK K can be tracked NOW for your location showing map with azimuth and elevation plus other details from your city location.

Track the satellite on the map from your city or location and see movement details for azimuth, elevation, latitude, longitude, range, height, and movement on the map or in text.







IsCatalogInMostPopularTable: catalog: 44244, numindb: 46
Update: records affected: 1



GetName: 44244 STARLINK K

Hit Count: updated at: Sun, 21 Jul 2019 20:56:35 GMT